Voltar ao catálogo

DELTA 1 DEB

AtivoSSO
NORAD 10758·DEBRIS·🇺🇸 United States

Lançado Jul 29, 1976 de Vandenberg Space Force Base

Loading…

Próximas Passagens (próximas 24 horas)

TLE

AtualizadoSource: Space-Track

Época: Sep 14, 2026, 09:05 UTC

1 10758U 76077BF  26257.37876519  .00000000  00000-0  43992-3 0  9996
2 10758 102.4768 208.0668 0156512  36.1735 116.8152 12.12870002219881

Acompanhe DELTA 1 DEB em tempo real com AllMySat

Download on the App Store